�������l�o���
Date,Time,MP-1(��Sv/h),MP-2(��Sv/h),MP-3(��Sv/h),MP-4(��Sv/h),MP-5(��Sv/h),MP-6(��Sv/h),MP-7(��Sv/h),MP-8(��Sv/h),����,����(m/s),���J
2022/04/22,00:00,0.571,0.843,0.543,1.027,0.726,0.349,0.593,0.563,�쐼,4.0,�L
2022/04/22,00:10,0.571,0.843,0.543,1.028,0.724,0.349,0.593,0.560,�쐼,3.5,�L
2022/04/22,00:20,0.572,0.841,0.543,1.026,0.722,0.349,0.592,0.560,�쐼,3.5,�L
2022/04/22,00:30,0.568,0.834,0.541,1.024,0.720,0.348,0.592,0.561,��쐼,2.6,�L
2022/04/22,00:40,0.568,0.837,0.540,1.020,0.722,0.350,0.592,0.559,��쐼,1.9,�L
2022/04/22,00:50,0.566,0.834,0.538,1.020,0.718,0.348,0.591,0.560,��,0.9,�L
2022/04/22,01:00,0.567,0.834,0.539,1.018,0.719,0.347,0.591,0.559,��,0.9,�L
2022/04/22,01:10,0.566,0.830,0.538,1.018,0.719,0.347,0.590,0.559,��쓌,0.6,�L
2022/04/22,01:20,0.567,0.832,0.537,1.016,0.719,0.346,0.591,0.559,�쓌,1.1,�L
2022/04/22,01:30,0.566,0.829,0.538,1.015,0.715,0.347,0.590,0.559,�쓌,1.4,�L
2022/04/22,01:40,0.564,0.826,0.536,1.015,0.713,0.347,0.589,0.558,�쓌,3.3,�L
2022/04/22,01:50,0.563,0.825,0.536,1.010,0.710,0.347,0.588,0.556,�쓌,3.5,�L
2022/04/22,02:00,0.561,0.819,0.535,1.009,0.709,0.346,0.588,0.557,��쓌,2.2,�L
2022/04/22,02:10,0.562,0.818,0.536,1.006,0.705,0.346,0.585,0.556,��쓌,3.8,�L
2022/04/22,02:20,0.559,0.816,0.535,1.004,0.705,0.345,0.587,0.555,��,5.5,�L
2022/04/22,02:30,0.560,0.818,0.533,1.001,0.704,0.344,0.585,0.555,��,5.7,�L
2022/04/22,02:40,0.559,0.816,0.532,1.000,0.702,0.344,0.587,0.556,�쐼,2.6,�L
2022/04/22,02:50,0.556,0.812,0.532,0.996,0.700,0.345,0.584,0.554,���k��,1.7,�L
2022/04/22,03:00,0.556,0.812,0.531,0.993,0.698,0.343,0.583,0.553,��쐼,1.2,�L
2022/04/22,03:10,0.555,0.811,0.530,0.991,0.695,0.342,0.582,0.553,��쓌,1.2,�L
2022/04/22,03:20,0.554,0.809,0.533,0.990,0.695,0.342,0.582,0.553,��쓌,2.0,�L
2022/04/22,03:30,0.554,0.809,0.529,0.988,0.694,0.343,0.582,0.551,��,2.3,�L
2022/04/22,03:40,0.553,0.807,0.529,0.986,0.694,0.342,0.581,0.551,��쓌,3.2,�L
2022/04/22,03:50,0.551,0.808,0.530,0.986,0.693,0.343,0.580,0.552,��쓌,4.6,�L
2022/04/22,04:00,0.553,0.806,0.529,0.986,0.693,0.342,0.582,0.550,�쓌,4.6,�L
2022/04/22,04:10,0.555,0.806,0.529,0.986,0.690,0.342,0.581,0.553,��쓌,3.6,�L
2022/04/22,04:20,0.555,0.808,0.530,0.986,0.695,0.343,0.580,0.554,��쓌,3.7,�L
2022/04/22,04:30,0.553,0.808,0.530,0.986,0.695,0.342,0.581,0.554,�쓌,2.8,�L
2022/04/22,04:40,0.554,0.808,0.530,0.985,0.695,0.342,0.581,0.554,�쓌,1.7,�L
2022/04/22,04:50,0.553,0.810,0.529,0.988,0.697,0.342,0.582,0.554,�k��,2.2,�L
2022/04/22,05:00,0.554,0.810,0.530,0.985,0.695,0.343,0.580,0.554,�k��,0.8,�L
2022/04/22,05:10,0.555,0.812,0.529,0.989,0.694,0.343,0.582,0.553,�k,3.2,�L
2022/04/22,05:20,0.555,0.810,0.530,0.987,0.696,0.343,0.582,0.554,�k�k��,5.2,�L
2022/04/22,05:30,0.555,0.817,0.529,0.989,0.696,0.343,0.583,0.552,�k�k��,6.3,�L
2022/04/22,05:40,0.555,0.815,0.530,0.988,0.697,0.343,0.582,0.555,�k�k��,5.9,�L
2022/04/22,05:50,0.554,0.814,0.531,0.989,0.697,0.343,0.583,0.555,�k�k��,7.2,��
2022/04/22,06:00,0.556,0.813,0.531,0.990,0.697,0.342,0.582,0.556,�k�k��,7.6,�L
2022/04/22,06:10,0.554,0.814,0.528,0.989,0.694,0.342,0.583,0.556,�k�k��,7.6,�L
2022/04/22,06:20,0.553,0.808,0.526,0.984,0.693,0.342,0.581,0.554,�k�k��,8.0,�L
2022/04/22,06:30,0.553,0.808,0.528,0.984,0.692,0.342,0.581,0.554,�k�k��,7.3,�L
2022/04/22,06:40,0.554,0.805,0.529,0.983,0.692,0.341,0.582,0.554,�k�k��,6.8,�L
2022/04/22,06:50,0.552,0.806,0.527,0.985,0.694,0.342,0.582,0.555,�k�k��,7.9,�L
2022/04/22,07:00,0.553,0.808,0.528,0.985,0.693,0.341,0.582,0.554,�k�k��,7.2,��
2022/04/22,07:10,0.554,0.808,0.530,0.986,0.694,0.341,0.582,0.554,�k�k��,6.3,��
2022/04/22,07:20,0.553,0.808,0.530,0.989,0.695,0.342,0.582,0.555,�k,3.4,��
2022/04/22,07:30,0.555,0.811,0.529,0.989,0.696,0.341,0.585,0.556,�k,2.3,��
2022/04/22,07:40,0.556,0.811,0.530,0.990,0.698,0.340,0.583,0.555,�k,5.0,��
2022/04/22,07:50,0.555,0.810,0.529,0.992,0.699,0.340,0.585,0.554,�k,5.9,��
2022/04/22,08:00,0.554,0.810,0.529,0.989,0.699,0.339,0.583,0.555,�k,5.9,��
2022/04/22,08:10,0.555,0.812,0.530,0.991,0.698,0.339,0.584,0.554,�k�k��,5.4,��
2022/04/22,08:20,0.555,0.813,0.530,0.991,0.698,0.339,0.586,0.556,�k,6.1,��
2022/04/22,08:30,0.555,0.812,0.531,0.993,0.699,0.340,0.585,0.555,�k,4.2,��
2022/04/22,08:40,0.553,0.812,0.530,0.994,0.698,0.340,0.587,0.555,�k,3.7,��
2022/04/22,08:50,0.556,0.815,0.528,0.994,0.698,0.341,0.586,0.557,�k,4.6,��
2022/04/22,09:00,0.553,0.816,0.529,0.996,0.701,0.341,0.584,0.557,�k,5.5,��
2022/04/22,09:10,0.557,0.814,0.529,0.994,0.700,0.340,0.586,0.555,�k�k��,5.4,��
2022/04/22,09:20,0.556,0.816,0.530,0.994,0.700,0.340,0.588,0.556,�k,5.0,��
2022/04/22,09:30,0.556,0.818,0.530,0.997,0.701,0.341,0.588,0.556,�k�k��,5.8,��
2022/04/22,09:40,0.557,0.818,0.529,0.996,0.702,0.341,0.588,0.556,�k,5.2,��
2022/04/22,09:50,0.558,0.818,0.529,0.997,0.702,0.341,0.588,0.556,�k�k��,3.9,��
2022/04/22,10:00,0.558,0.819,0.531,0.997,0.704,0.341,0.586,0.555,�k�k��,3.7,��
2022/04/22,10:10,0.559,0.820,0.530,0.998,0.705,0.342,0.589,0.556,�k�k��,4.8,��
2022/04/22,10:20,0.560,0.821,0.532,0.999,0.704,0.340,0.589,0.556,�k�k��,5.2,��
2022/04/22,10:30,0.558,0.821,0.530,1.000,0.706,0.340,0.587,0.556,�k��,4.8,��
2022/04/22,10:40,0.559,0.820,0.532,1.000,0.708,0.341,0.588,0.556,�k�k��,5.1,��
2022/04/22,10:50,0.560,0.821,0.534,1.000,0.704,0.341,0.590,0.557,�k��,3.2,��
2022/04/22,11:00,0.562,0.820,0.531,0.999,0.708,0.340,0.590,0.557,���k��,2.8,��
2022/04/22,11:10,0.558,0.824,0.533,1.001,0.710,0.340,0.590,0.558,���k��,2.6,��
2022/04/22,11:20,0.560,0.824,0.534,1.001,0.708,0.339,0.587,0.560,���k��,2.6,��
2022/04/22,11:30,0.561,0.826,0.534,1.001,0.706,0.342,0.590,0.557,���k��,3.3,��
2022/04/22,11:40,0.560,0.824,0.534,1.000,0.708,0.342,0.591,0.559,��,2.9,��
2022/04/22,11:50,0.561,0.826,0.535,0.999,0.712,0.341,0.591,0.560,���k��,1.1,��
2022/04/22,12:00,0.563,0.828,0.535,1.000,0.711,0.343,0.591,0.559,���k��,2.3,��
2022/04/22,12:10,0.561,0.829,0.533,0.999,0.711,0.342,0.589,0.558,��,2.0,��
2022/04/22,12:20,0.564,0.829,0.535,0.998,0.712,0.342,0.590,0.558,�쓌,1.5,��
2022/04/22,12:30,0.563,0.829,0.536,1.001,0.712,0.343,0.592,0.560,���쓌,2.0,��
2022/04/22,12:40,0.564,0.828,0.533,1.004,0.713,0.342,0.591,0.559,�k��,0.9,��
2022/04/22,12:50,0.564,0.828,0.536,1.003,0.712,0.344,0.591,0.559,���쐼,0.9,�L
2022/04/22,13:00,0.565,0.829,0.538,1.005,0.714,0.344,0.594,0.559,���k��,1.5,��
2022/04/22,13:10,0.564,0.829,0.537,1.004,0.713,0.345,0.594,0.559,�k�k��,3.0,��
2022/04/22,13:20,0.565,0.831,0.537,1.004,0.713,0.344,0.595,0.559,�k,2.0,��
2022/04/22,13:30,0.563,0.830,0.539,1.004,0.715,0.344,0.595,0.561,�k��,3.5,��
2022/04/22,13:40,0.566,0.829,0.541,1.004,0.714,0.344,0.595,0.560,���쐼,6.4,��
2022/04/22,13:50,0.566,0.829,0.538,1.008,0.715,0.344,0.594,0.560,���쐼,9.2,��
2022/04/22,14:00,0.568,0.830,0.540,1.006,0.715,0.344,0.595,0.559,���k��,10.2,��
2022/04/22,14:10,0.567,0.830,0.540,1.007,0.715,0.345,0.596,0.561,���k��,8.9,��
2022/04/22,14:20,0.567,0.833,0.539,1.006,0.714,0.343,0.596,0.561,��,7.1,��
2022/04/22,14:30,0.566,0.829,0.540,1.007,0.716,0.344,0.595,0.562,���k��,7.4,��
2022/04/22,14:40,0.567,0.833,0.539,1.007,0.717,0.346,0.598,0.563,���k��,11.7,��
2022/04/22,14:50,0.568,0.830,0.540,1.005,0.717,0.344,0.594,0.563,���k��,9.5,��
2022/04/22,15:00,0.567,0.834,0.540,1.007,0.716,0.345,0.595,0.562,���k��,8.0,��
2022/04/22,15:10,0.570,0.833,0.539,1.008,0.717,0.344,0.595,0.562,���k��,7.1,��
2022/04/22,15:20,0.566,0.833,0.539,1.007,0.717,0.345,0.594,0.560,��,6.4,��
2022/04/22,15:30,0.566,0.834,0.540,1.008,0.717,0.344,0.594,0.561,���k��,10.0,��
2022/04/22,15:40,0.568,0.834,0.540,1.010,0.715,0.343,0.594,0.562,��,6.0,��
2022/04/22,15:50,0.567,0.835,0.542,1.010,0.717,0.345,0.594,0.561,��,3.9,��
2022/04/22,16:00,0.567,0.835,0.539,1.010,0.718,0.345,0.593,0.563,�k��,3.0,��
2022/04/22,16:10,0.568,0.833,0.540,1.010,0.719,0.345,0.594,0.561,-,CALM,��
2022/04/22,16:20,0.568,0.835,0.540,1.010,0.718,0.345,0.596,0.561,��,0.6,��
2022/04/22,16:30,0.566,0.836,0.540,1.010,0.720,0.344,0.592,0.562,���쐼,0.9,��
2022/04/22,16:40,0.568,0.833,0.540,1.010,0.717,0.344,0.594,0.563,���쐼,3.0,��
2022/04/22,16:50,0.567,0.835,0.539,1.009,0.718,0.345,0.594,0.559,�쐼,2.2,��
2022/04/22,17:00,0.565,0.836,0.538,1.010,0.717,0.346,0.593,0.562,��쓌,4.1,��
2022/04/22,17:10,0.568,0.832,0.539,1.009,0.718,0.345,0.592,0.561,��쓌,5.3,��
2022/04/22,17:20,0.567,0.836,0.540,1.009,0.718,0.347,0.593,0.561,��,5.6,��
2022/04/22,17:30,0.566,0.838,0.539,1.012,0.717,0.345,0.594,0.561,��쐼,5.2,��
2022/04/22,17:40,0.566,0.838,0.540,1.012,0.718,0.344,0.594,0.561,�쐼,4.9,��
2022/04/22,17:50,0.566,0.837,0.540,1.011,0.717,0.346,0.593,0.562,�쐼,5.4,��
2022/04/22,18:00,0.566,0.838,0.540,1.013,0.717,0.347,0.592,0.564,�쐼,4.9,��
2022/04/22,18:10,0.567,0.839,0.539,1.014,0.719,0.346,0.595,0.563,��쐼,2.6,��
2022/04/22,18:20,0.567,0.841,0.540,1.014,0.718,0.347,0.591,0.565,�쐼,1.7,��
2022/04/22,18:30,0.567,0.839,0.539,1.013,0.719,0.347,0.593,0.564,�쐼,4.8,��
2022/04/22,18:40,0.568,0.838,0.539,1.014,0.722,0.347,0.594,0.565,�쐼,6.4,��
2022/04/22,18:50,0.569,0.840,0.542,1.013,0.720,0.347,0.594,0.564,�쐼,7.0,��
2022/04/22,19:00,0.567,0.838,0.542,1.014,0.719,0.347,0.596,0.564,�쐼,7.3,��
2022/04/22,19:10,0.569,0.839,0.543,1.013,0.719,0.346,0.593,0.565,��쐼,5.4,��
2022/04/22,19:20,0.568,0.838,0.541,1.015,0.722,0.345,0.594,0.564,��,6.2,��
2022/04/22,19:30,0.569,0.839,0.542,1.014,0.720,0.347,0.594,0.564,��쐼,4.7,��
2022/04/22,19:40,0.568,0.838,0.542,1.014,0.721,0.347,0.596,0.562,�쐼,4.0,��
2022/04/22,19:50,0.568,0.841,0.543,1.016,0.721,0.346,0.595,0.563,���쐼,1.4,��
2022/04/22,20:00,0.569,0.838,0.540,1.014,0.720,0.345,0.596,0.564,-,CALM,��
2022/04/22,20:10,0.568,0.839,0.542,1.013,0.722,0.346,0.594,0.563,�k�k��,1.5,��
2022/04/22,20:20,0.569,0.839,0.542,1.013,0.720,0.347,0.596,0.562,���k��,1.2,��
2022/04/22,20:30,0.571,0.837,0.542,1.015,0.722,0.346,0.594,0.562,���k��,1.2,��
2022/04/22,20:40,0.568,0.838,0.542,1.014,0.722,0.345,0.595,0.563,���쓌,1.2,��
2022/04/22,20:50,0.568,0.839,0.540,1.015,0.723,0.346,0.595,0.563,�쓌,2.5,��
2022/04/22,21:00,0.568,0.838,0.540,1.016,0.722,0.346,0.596,0.563,-,CALM,��
2022/04/22,21:10,0.568,0.837,0.542,1.014,0.720,0.345,0.595,0.563,���쐼,3.7,��
2022/04/22,21:20,0.568,0.838,0.541,1.018,0.720,0.348,0.595,0.562,���쐼,3.0,��
2022/04/22,21:30,0.566,0.838,0.541,1.016,0.721,0.346,0.595,0.562,�쐼,2.0,��
2022/04/22,21:40,0.567,0.838,0.541,1.014,0.722,0.346,0.594,0.563,�쐼,3.2,��
2022/04/22,21:50,0.569,0.837,0.543,1.016,0.722,0.347,0.596,0.563,��쐼,2.8,��
2022/04/22,22:00,0.568,0.838,0.543,1.015,0.722,0.346,0.594,0.563,��,2.2,��
2022/04/22,22:10,0.567,0.840,0.542,1.016,0.721,0.346,0.594,0.561,��,3.9,��
2022/04/22,22:20,0.570,0.839,0.542,1.013,0.721,0.346,0.596,0.563,��,3.8,��
2022/04/22,22:30,0.568,0.838,0.542,1.014,0.721,0.345,0.595,0.562,��,4.8,��
2022/04/22,22:40,0.569,0.841,0.542,1.014,0.723,0.346,0.595,0.561,��,3.6,��
2022/04/22,22:50,0.570,0.838,0.541,1.016,0.721,0.347,0.595,0.563,��,3.8,��
2022/04/22,23:00,0.571,0.838,0.542,1.015,0.720,0.346,0.594,0.563,�쐼,3.8,��
2022/04/22,23:10,0.570,0.837,0.542,1.015,0.720,0.346,0.594,0.562,���쐼,3.5,��
2022/04/22,23:20,0.568,0.838,0.543,1.014,0.722,0.346,0.594,0.562,���쐼,3.2,��
2022/04/22,23:30,0.569,0.839,0.542,1.015,0.721,0.346,0.595,0.564,���쐼,3.4,��
2022/04/22,23:40,0.571,0.838,0.542,1.016,0.723,0.347,0.595,0.563,�쐼,4.3,��
2022/04/22,23:50,0.569,0.837,0.542,1.014,0.723,0.346,0.594,0.563,�쐼,4.0,��
